| time (UTC) | temp F | wind direction | speed knots | gust knots | rain 1hr in | rain 24hr in | rain mn in | humidity % | barometer mb |
| 20260505034542 | 67 | 359 | 0.0 | 0.0 | 0.00 | 0.00 | 0.00 | 73 | 1019.8 |
| 20260505034039 | 67 | 13 | 0.0 | 0.0 | 0.00 | 0.00 | 0.00 | 73 | 1019.8 |
| 20260505033536 | 67 | 17 | 0.0 | 0.0 | 0.00 | 0.00 | 0.00 | 72 | 1019.7 |
| 20260505033034 | 67 | 81 | 0.0 | 0.0 | 0.00 | 0.00 | 0.00 | 73 | 1019.6 |
| 20260505032531 | 67 | 47 | 0.0 | 0.0 | 0.00 | 0.00 | 0.00 | 73 | 1019.7 |
| 20260505032028 | 67 | 109 | 0.0 | 0.0 | 0.00 | 0.00 | 0.00 | 73 | 1020.0 |
| 20260505031525 | 67 | 350 | 0.0 | 0.0 | 0.00 | 0.00 | 0.00 | 73 | 1019.8 |
| 20260505031021 | 67 | 13 | 0.0 | 0.0 | 0.00 | 0.00 | 0.00 | 73 | 1019.8 |
| 20260505030518 | 68 | 170 | 0.0 | 0.0 | 0.00 | 0.00 | 0.00 | 73 | 1019.6 |
| 20260505030015 | 67 | 66 | 0.0 | 0.0 | 0.00 | 0.00 | 0.00 | 73 | 1019.8 |
| 20260505025510 | 68 | 317 | 0.0 | 0.0 | 0.00 | 0.00 | 0.00 | 73 | 1019.8 |
| 20260505025010 | 67 | 6 | 0.0 | 0.0 | 0.00 | 0.00 | 0.00 | 74 | 1019.6 |
| 20260505024506 | 68 | 326 | 0.0 | 0.0 | 0.00 | 0.00 | 0.00 | 73 | 1019.6 |
| 20260505024003 | 68 | 306 | 0.0 | 0.0 | 0.00 | 0.00 | 0.00 | 73 | 1019.6 |
| 20260505023500 | 68 | 286 | 0.0 | 0.0 | 0.00 | 0.00 | 0.00 | 73 | 1019.8 |
| 20260505022957 | 68 | 7 | 0.0 | 0.0 | 0.00 | 0.00 | 0.00 | 73 | 1019.9 |
| 20260505022455 | 68 | 48 | 0.0 | 0.0 | 0.00 | 0.00 | 0.00 | 73 | 1019.7 |
| 20260505021952 | 68 | 349 | 0.0 | 0.0 | 0.00 | 0.00 | 0.00 | 73 | 1019.9 |
| 20260505021448 | 68 | 38 | 0.0 | 0.0 | 0.00 | 0.00 | 0.00 | 74 | 1019.9 |
| 20260505020944 | 68 | 62 | 0.0 | 0.0 | 0.00 | 0.00 | 0.00 | 73 | 1019.5 |
| 20260505020439 | 68 | 353 | 0.0 | 0.0 | 0.00 | 0.00 | 0.00 | 73 | 1019.5 |
| 20260505015937 | 68 | 61 | 0.0 | 0.0 | 0.00 | 0.00 | 0.00 | 73 | 1019.6 |
| 20260505015434 | 68 | 35 | 0.0 | 0.0 | 0.00 | 0.00 | 0.00 | 73 | 1019.7 |
| 20260505014931 | 68 | 70 | 0.0 | 0.0 | 0.00 | 0.00 | 0.00 | 73 | 1019.7 |
| 20260505014427 | 68 | 135 | 0.0 | 0.0 | 0.00 | 0.00 | 0.00 | 73 | 1019.6 |
| 20260505013924 | 68 | 82 | 0.0 | 0.0 | 0.00 | 0.00 | 0.00 | 73 | 1019.6 |
| 20260505013422 | 68 | 351 | 0.0 | 0.0 | 0.00 | 0.00 | 0.00 | 73 | 1019.6 |
| 20260505012920 | 68 | 96 | 0.0 | 0.0 | 0.00 | 0.00 | 0.00 | 73 | 1019.5 |
| 20260505012418 | 68 | 77 | 0.0 | 0.0 | 0.00 | 0.00 | 0.00 | 72 | 1019.6 |
| 20260505011914 | 68 | 162 | 0.0 | 0.0 | 0.00 | 0.00 | 0.00 | 73 | 1019.8 |
| 20260505011410 | 68 | 71 | 0.0 | 0.0 | 0.00 | 0.00 | 0.00 | 72 | 1019.6 |
| 20260505010907 | 68 | 53 | 0.0 | 0.0 | 0.00 | 0.00 | 0.00 | 72 | 1019.5 |
| 20260505010403 | 69 | 347 | 0.0 | 0.0 | 0.00 | 0.00 | 0.00 | 72 | 1019.4 |
| 20260505005859 | 69 | 343 | 0.0 | 0.0 | 0.00 | 0.00 | 0.00 | 72 | 1019.4 |
| 20260505005355 | 69 | 56 | 0.0 | 0.0 | 0.00 | 0.00 | 0.00 | 72 | 1019.4 |
| 20260505004853 | 69 | 72 | 0.0 | 0.0 | 0.00 | 0.00 | 0.00 | 72 | 1019.3 |
| 20260505004349 | 69 | 294 | 0.0 | 0.0 | 0.00 | 0.00 | 0.00 | 72 | 1019.3 |
| 20260505003847 | 69 | 28 | 0.0 | 0.0 | 0.00 | 0.00 | 0.00 | 72 | 1019.3 |
| 20260505003344 | 69 | 40 | 0.0 | 0.0 | 0.00 | 0.00 | 0.00 | 71 | 1019.4 |
| 20260505002839 | 69 | 336 | 0.0 | 0.0 | 0.00 | 0.00 | 0.00 | 71 | 1019.2 |
| 20260505002337 | 69 | 8 | 0.0 | 0.0 | 0.00 | 0.00 | 0.00 | 71 | 1019.0 |
| 20260505001835 | 69 | 318 | 0.0 | 0.0 | 0.00 | 0.00 | 0.00 | 71 | 1019.3 |
| 20260505001332 | 70 | 295 | 0.0 | 0.0 | 0.00 | 0.00 | 0.00 | 70 | 1019.1 |
| 20260505000829 | 70 | 346 | 0.0 | 0.0 | 0.00 | 0.00 | 0.00 | 70 | 1019.0 |
| 20260505000327 | 70 | 327 | 0.0 | 0.0 | 0.00 | 0.00 | 0.00 | 69 | 1019.0 |
| 20260504235823 | 70 | 313 | 0.0 | 0.0 | 0.00 | 0.00 | 0.00 | 69 | 1019.1 |
| 20260504235320 | 71 | 354 | 0.0 | 0.0 | 0.00 | 0.00 | 0.00 | 69 | 1018.9 |
| 20260504234817 | 71 | 112 | 0.9 | 1.7 | 0.00 | 0.00 | 0.00 | 68 | 1019.0 |
| 20260504234315 | 71 | 169 | 0.0 | 0.0 | 0.00 | 0.00 | 0.00 | 68 | 1019.0 |
| 20260504233811 | 71 | 134 | 0.9 | 3.5 | 0.00 | 0.00 | 0.00 | 67 | 1018.8 |
| 20260504233307 | 72 | 44 | 0.0 | 0.0 | 0.00 | 0.00 | 0.00 | 67 | 1018.8 |
| 20260504232803 | 72 | 95 | 0.0 | 0.0 | 0.00 | 0.00 | 0.00 | 67 | 1018.8 |
| 20260504232301 | 73 | 342 | 0.0 | 0.0 | 0.00 | 0.00 | 0.00 | 66 | 1018.8 |
| 20260504231758 | 72 | 260 | 0.0 | 0.0 | 0.00 | 0.00 | 0.00 | 66 | 1018.5 |
| 20260504231254 | 73 | 173 | 0.0 | 0.0 | 0.00 | 0.00 | 0.00 | 66 | 1018.7 |
| 20260504230750 | 74 | 47 | 0.0 | 0.0 | 0.00 | 0.00 | 0.00 | 65 | 1018.7 |
| 20260504230248 | 74 | 346 | 0.0 | 0.0 | 0.00 | 0.00 | 0.00 | 63 | 1018.6 |
| 20260504225747 | 75 | 331 | 0.0 | 0.0 | 0.00 | 0.00 | 0.00 | 63 | 1018.6 |
| 20260504225243 | 75 | 302 | 0.0 | 0.0 | 0.00 | 0.00 | 0.00 | 62 | 1018.7 |
| 20260504224740 | 75 | 133 | 0.0 | 0.9 | 0.00 | 0.00 | 0.00 | 62 | 1018.9 |
| 20260504224237 | 76 | 90 | 0.0 | 0.0 | 0.00 | 0.00 | 0.00 | 61 | 1018.7 |
| 20260504223733 | 76 | 74 | 0.0 | 0.0 | 0.00 | 0.00 | 0.00 | 62 | 1018.8 |
| 20260504223229 | 76 | 332 | 0.0 | 0.0 | 0.00 | 0.00 | 0.00 | 61 | 1018.8 |
| 20260504222726 | 76 | 0 | 0.0 | 0.0 | 0.00 | 0.00 | 0.00 | 61 | 1018.7 |
| 20260504222223 | 77 | 32 | 0.9 | 2.6 | 0.00 | 0.00 | 0.00 | 59 | 1019.2 |
| 20260504221721 | 77 | 302 | 0.0 | 0.9 | 0.00 | 0.00 | 0.00 | 60 | 1018.8 |
| 20260504221217 | 77 | 283 | 0.0 | 0.0 | 0.00 | 0.00 | 0.00 | 60 | 1019.1 |
| 20260504220714 | 78 | 238 | 0.0 | 0.9 | 0.00 | 0.00 | 0.00 | 59 | 1019.0 |
| 20260504220212 | 77 | 19 | 0.0 | 0.0 | 0.00 | 0.00 | 0.00 | 60 | 1018.9 |
| 20260504215708 | 78 | 81 | 0.0 | 0.0 | 0.00 | 0.00 | 0.00 | 59 | 1018.9 |
| 20260504215205 | 77 | 222 | 0.0 | 0.9 | 0.00 | 0.00 | 0.00 | 59 | 1018.6 |
| 20260504214701 | 78 | 72 | 0.0 | 1.7 | 0.00 | 0.00 | 0.00 | 59 | 1018.7 |
| 20260504214157 | 77 | 332 | 0.0 | 0.0 | 0.00 | 0.00 | 0.00 | 61 | 1018.5 |
| 20260504213654 | 78 | 320 | 0.0 | 1.7 | 0.00 | 0.00 | 0.00 | 59 | 1018.9 |
| 20260504213151 | 78 | 10 | 0.0 | 0.0 | 0.00 | 0.00 | 0.00 | 58 | 1019.0 |
| 20260504212647 | 77 | 42 | 0.0 | 0.0 | 0.00 | 0.00 | 0.00 | 60 | 1019.0 |
| 20260504212144 | 78 | 139 | 0.0 | 1.7 | 0.00 | 0.00 | 0.00 | 59 | 1019.1 |
| 20260504211642 | 77 | 135 | 2.6 | 5.2 | 0.00 | 0.00 | 0.00 | 59 | 1019.0 |
| 20260504211137 | 77 | 338 | 0.9 | 1.7 | 0.00 | 0.00 | 0.00 | 61 | 1018.9 |
| 20260504210636 | 78 | 236 | 0.9 | 2.6 | 0.00 | 0.00 | 0.00 | 59 | 1019.1 |
| 20260504210132 | 77 | 139 | 0.0 | 0.9 | 0.00 | 0.00 | 0.00 | 61 | 1019.2 |
| 20260504205629 | 77 | 98 | 0.0 | 0.9 | 0.00 | 0.00 | 0.00 | 60 | 1019.1 |
| 20260504205127 | 77 | 27 | 0.0 | 0.0 | 0.00 | 0.00 | 0.00 | 60 | 1019.3 |
| 20260504204625 | 79 | 212 | 0.0 | 0.9 | 0.00 | 0.00 | 0.00 | 57 | 1019.1 |
| 20260504204124 | 78 | 203 | 0.9 | 1.7 | 0.00 | 0.00 | 0.00 | 58 | 1019.3 |
| 20260504203622 | 81 | 322 | 0.0 | 0.0 | 0.00 | 0.00 | 0.00 | 56 | 1019.0 |
| 20260504203119 | 80 | 186 | 0.0 | 2.6 | 0.00 | 0.00 | 0.00 | 57 | 1019.3 |
| 20260504202614 | 79 | 31 | 0.9 | 1.7 | 0.00 | 0.00 | 0.00 | 55 | 1019.3 |
| 20260504202111 | 79 | 118 | 0.0 | 0.0 | 0.00 | 0.00 | 0.00 | 55 | 1019.1 |
| 20260504201608 | 79 | 33 | 0.0 | 0.0 | 0.00 | 0.00 | 0.00 | 54 | 1019.2 |
| 20260504201106 | 79 | 160 | 0.0 | 0.0 | 0.00 | 0.00 | 0.00 | 55 | 1019.3 |
| 20260504200603 | 80 | 232 | 0.0 | 0.0 | 0.00 | 0.00 | 0.00 | 56 | 1019.3 |
| 20260504200059 | 80 | 57 | 0.0 | 0.0 | 0.00 | 0.00 | 0.00 | 54 | 1019.4 |
| 20260504195555 | 81 | 73 | 0.0 | 0.9 | 0.00 | 0.00 | 0.00 | 53 | 1019.5 |
| 20260504195051 | 81 | 290 | 0.0 | 0.9 | 0.00 | 0.00 | 0.00 | 54 | 1019.4 |
| 20260504194548 | 79 | 38 | 0.0 | 0.0 | 0.00 | 0.00 | 0.00 | 54 | 1019.5 |
| 20260504194043 | 79 | 97 | 0.0 | 0.9 | 0.00 | 0.00 | 0.00 | 54 | 1019.6 |
| 20260504193540 | 79 | 9 | 0.0 | 0.0 | 0.00 | 0.00 | 0.00 | 56 | 1019.5 |
| 20260504193039 | 78 | 206 | 0.9 | 1.7 | 0.00 | 0.00 | 0.00 | 54 | 1019.5 |
| 20260504192537 | 78 | 28 | 0.0 | 0.0 | 0.00 | 0.00 | 0.00 | 54 | 1019.5 |
| 20260504192035 | 79 | 20 | 0.0 | 0.0 | 0.00 | 0.00 | 0.00 | 55 | 1019.7 |
| 20260504191532 | 79 | 142 | 0.0 | 0.9 | 0.00 | 0.00 | 0.00 | 54 | 1019.7 |
| 20260504191028 | 79 | 341 | 0.9 | 2.6 | 0.00 | 0.00 | 0.00 | 52 | 1019.8 |
| 20260504190525 | 79 | 322 | 0.0 | 0.0 | 0.00 | 0.00 | 0.00 | 53 | 1019.9 |
| 20260504190020 | 80 | 47 | 0.0 | 0.0 | 0.00 | 0.00 | 0.00 | 55 | 1020.0 |
| 20260504185518 | 79 | 347 | 0.0 | 0.9 | 0.00 | 0.00 | 0.00 | 53 | 1020.3 |
| 20260504185014 | 78 | 227 | 0.9 | 1.7 | 0.00 | 0.00 | 0.00 | 53 | 1020.3 |
| 20260504184510 | 79 | 74 | 0.9 | 1.7 | 0.00 | 0.00 | 0.00 | 53 | 1020.2 |
| 20260504184006 | 80 | 114 | 0.9 | 1.7 | 0.00 | 0.00 | 0.00 | 52 | 1020.3 |
| 20260504183503 | 79 | 64 | 0.0 | 0.0 | 0.00 | 0.00 | 0.00 | 53 | 1020.7 |
| 20260504183001 | 78 | 52 | 0.0 | 0.9 | 0.00 | 0.00 | 0.00 | 52 | 1020.5 |
| 20260504182457 | 79 | 69 | 0.9 | 1.7 | 0.00 | 0.00 | 0.00 | 51 | 1020.4 |
| 20260504181955 | 78 | 75 | 0.0 | 0.0 | 0.00 | 0.00 | 0.00 | 53 | 1020.5 |
| 20260504181452 | 79 | 185 | 0.9 | 1.7 | 0.00 | 0.00 | 0.00 | 51 | 1020.5 |
| 20260504180950 | 79 | 32 | 1.7 | 3.5 | 0.00 | 0.00 | 0.00 | 51 | 1020.2 |
| 20260504180449 | 78 | 208 | 0.0 | 0.9 | 0.00 | 0.00 | 0.00 | 53 | 1020.5 |
| 20260504175947 | 78 | 166 | 0.9 | 2.6 | 0.00 | 0.00 | 0.00 | 52 | 1020.4 |
| 20260504175444 | 78 | 66 | 0.0 | 0.0 | 0.00 | 0.00 | 0.00 | 54 | 1020.5 |
| 20260504174941 | 78 | 46 | 0.0 | 0.0 | 0.00 | 0.00 | 0.00 | 52 | 1020.7 |
| 20260504174438 | 78 | 107 | 0.9 | 2.6 | 0.00 | 0.00 | 0.00 | 53 | 1020.5 |
| 20260504173936 | 78 | 38 | 0.0 | 1.7 | 0.00 | 0.00 | 0.00 | 53 | 1020.7 |
| 20260504173431 | 79 | 195 | 0.0 | 1.7 | 0.00 | 0.00 | 0.00 | 52 | 1020.6 |
| 20260504172930 | 79 | 197 | 0.9 | 1.7 | 0.00 | 0.00 | 0.00 | 52 | 1020.6 |
| 20260504172426 | 78 | 51 | 0.0 | 0.0 | 0.00 | 0.00 | 0.00 | 52 | 1020.7 |
| 20260504171922 | 79 | 116 | 0.0 | 0.9 | 0.00 | 0.00 | 0.00 | 50 | 1020.8 |
| 20260504171420 | 79 | 127 | 0.0 | 0.0 | 0.00 | 0.00 | 0.00 | 50 | 1020.9 |
| 20260504170916 | 78 | 19 | 0.0 | 0.0 | 0.00 | 0.00 | 0.00 | 53 | 1020.9 |
| 20260504170413 | 79 | 121 | 0.0 | 0.9 | 0.00 | 0.00 | 0.00 | 49 | 1020.9 |
| 20260504160332 | 79 | 18 | 0.0 | 0.0 | 0.00 | 0.00 | 0.00 | 50 | 1021.2 |
| 20260504150756 | 78 | 175 | 0.0 | 0.0 | 0.00 | 0.00 | 0.00 | 44 | 1021.4 |
| 20260504150253 | 77 | 85 | 0.0 | 0.0 | 0.00 | 0.00 | 0.00 | 44 | 1021.1 |
| 20260504141223 | 78 | 165 | 0.0 | 0.0 | 0.00 | 0.00 | 0.00 | 46 | 1021.2 |
| 20260504140719 | 78 | 125 | 0.0 | 0.0 | 0.00 | 0.00 | 0.00 | 43 | 1021.1 |
| 20260504140215 | 76 | 122 | 0.0 | 0.0 | 0.00 | 0.00 | 0.00 | 43 | 1021.2 |
| 20260504130643 | 73 | 89 | 0.0 | 0.0 | 0.00 | 0.00 | 0.00 | 57 | 1020.9 |
| 20260504130140 | 73 | 279 | 0.0 | 0.0 | 0.00 | 0.00 | 0.00 | 58 | 1021.0 |
| 20260504120104 | 63 | 40 | 0.0 | 0.0 | 0.00 | 0.00 | 0.00 | 99 | 1020.6 |
| 20260504110531 | 52 | 348 | 0.0 | 0.0 | 0.00 | 0.00 | 0.00 | 99 | 1020.3 |
| 20260504100453 | 52 | 348 | 0.0 | 0.0 | 0.00 | 0.00 | 0.00 | 99 | 1020.1 |
| 20260504081847 | 55 | 339 | 0.0 | 0.0 | 0.00 | 0.00 | 0.00 | 98 | 1020.1 |
| 20260504081343 | 54 | 347 | 0.0 | 0.0 | 0.00 | 0.00 | 0.00 | 98 | 1020.2 |
| 20260504080839 | 53 | 348 | 0.0 | 0.0 | 0.00 | 0.00 | 0.00 | 98 | 1020.1 |
| 20260504080336 | 53 | 348 | 0.0 | 0.0 | 0.00 | 0.00 | 0.00 | 98 | 1020.0 |
| 20260504070304 | 55 | 349 | 0.0 | 0.0 | 0.00 | 0.00 | 0.00 | 97 | 1019.9 |
| 20260504060224 | 56 | 348 | 0.0 | 0.0 | 0.00 | 0.00 | 0.00 | 94 | 1021.0 |
| 20260504050652 | 59 | 339 | 0.0 | 0.0 | 0.00 | 0.00 | 0.00 | 91 | 1021.3 |
| 20260504050149 | 59 | 335 | 0.0 | 0.0 | 0.00 | 0.00 | 0.00 | 91 | 1021.5 |
| 20260504045646 | 59 | 344 | 0.0 | 0.0 | 0.00 | 0.00 | 0.00 | 90 | 1021.3 |
| 20260504045146 | 59 | 336 | 0.0 | 0.0 | 0.00 | 0.00 | 0.00 | 90 | 1021.1 |
| 20260504044644 | 59 | 348 | 0.0 | 0.0 | 0.00 | 0.00 | 0.00 | 89 | 1021.4 |
| 20260504044140 | 60 | 345 | 0.0 | 0.0 | 0.00 | 0.00 | 0.00 | 89 | 1021.3 |
| 20260504043637 | 60 | 350 | 0.0 | 0.0 | 0.00 | 0.00 | 0.00 | 88 | 1021.4 |
| 20260504043135 | 60 | 351 | 0.0 | 0.0 | 0.00 | 0.00 | 0.00 | 87 | 1021.4 |
| 20260504042632 | 61 | 351 | 0.0 | 0.0 | 0.00 | 0.00 | 0.00 | 86 | 1021.2 |
| 20260504042129 | 61 | 330 | 0.0 | 0.0 | 0.00 | 0.00 | 0.00 | 86 | 1021.2 |
| 20260504041624 | 62 | 351 | 0.0 | 0.0 | 0.00 | 0.00 | 0.00 | 84 | 1021.2 |
| 20260504041121 | 63 | 348 | 0.0 | 0.0 | 0.00 | 0.00 | 0.00 | 83 | 1021.2 |
| 20260504040618 | 63 | 355 | 0.0 | 0.0 | 0.00 | 0.00 | 0.00 | 81 | 1021.3 |
| 20260504040115 | 64 | 1 | 0.0 | 0.0 | 0.00 | 0.00 | 0.00 | 80 | 1021.3 |
| 20260504035612 | 64 | 355 | 0.0 | 0.0 | 0.00 | 0.00 | 0.00 | 80 | 1021.2 |
| 20260504035108 | 65 | 355 | 0.0 | 0.0 | 0.00 | 0.00 | 0.00 | 80 | 1021.2 |
| 20260504034606 | 65 | 17 | 0.0 | 0.0 | 0.00 | 0.00 | 0.00 | 80 | 1021.3 |